User: anonymous   Login
Location: Dumpton Point
(51.3500°N, 1.4433°E)
Time: 10:24:36
(UTC+00:00)
Language:

Courier 1B - Orbit

View from above orbital plane
View from above orbital plane
View from above satellite
View from above satellite

Ground track
Ground track

The orbit data is extracted from the following two-line orbital elements,

1 00058U 60013A   22269.49213722  .00000104  00000-0  31018-4 0  9996
2 00058  28.3258 198.5202 0165053 109.5723 252.2721 13.46338454 50688
Epoch (UTC): 26 September 2022 11:48:40
Eccentricity: 0.0165053
inclination: 28.3258°
perigee height: 962 km
apogee height: 1209 km
right ascension of ascending node: 198.5202°
argument of perigee: 109.5723°
revolutions per day: 13.46338454
mean anomaly at epoch: 252.2721°
orbit number at epoch: 5068

The dashed part of the orbit path shows where the satellite is in the earth's shadow,  

DLR